K7PMV-13 Weather Reports


time (UTC)temp
C
wind
direction
speed
KPH
gust
KPH
rain 1hr
cm
rain 24hr
cm
rain mn
cm
humidity
%
barometer
mb
20260507203223 35 360 4.8 64.4 0.00 0.00 0.00 13 1007.2
20260507202708 35 360 0.0 48.3 0.00 0.00 0.00 13 1007.2
20260507202154 34 360 3.2 48.3 0.00 0.00 0.00 14 1007.3
20260507201617 34 360 0.0 64.4 0.00 0.00 0.00 14 1007.4
20260507201052 33 360 3.2 96.6 0.00 0.00 0.00 14 1007.5
20260507200537 33 360 6.4 96.6 0.00 0.00 0.00 14 1007.6
20260507200015 33 360 3.2 64.4 0.00 0.00 0.00 14 1007.7
20260507195430 33 360 4.8 80.5 0.00 0.00 0.00 15 1007.8
20260507194911 32 360 1.6 80.5 0.00 0.00 0.00 15 1007.9
20260507194349 33 360 3.2 48.3 0.00 0.00 0.00 15 1008.1
20260507193834 33 360 1.6 64.4 0.00 0.00 0.00 16 1008.1
20260507193320 33 360 1.6 80.5 0.00 0.00 0.00 15 1008.2
20260507192205 33 360 3.2 96.6 0.00 0.00 0.00 15 1008.3
20260507191643 33 360 4.8 80.5 0.00 0.00 0.00 15 1008.4
20260507191128 32 360 1.6 80.5 0.00 0.00 0.00 16 1008.6
20260507190610 32 360 1.6 48.3 0.00 0.00 0.00 16 1008.6
20260507190045 32 360 1.6 64.4 0.00 0.00 0.00 15 1008.8
20260507185530 32 360 4.8 80.5 0.00 0.00 0.00 17 1008.7
20260507184359 31 360 3.2 96.6 0.00 0.00 0.00 18 1008.9
20260507183838 31 360 1.6 96.6 0.00 0.00 0.00 18 1009.1
20260507183324 31 360 4.8 80.5 0.00 0.00 0.00 18 1009.2
20260507182806 30 360 6.4 96.6 0.00 0.00 0.00 18 1009.2
20260507182252 31 360 3.2 96.6 0.00 0.00 0.00 19 1009.3
20260507181724 31 360 0.0 48.3 0.00 0.00 0.00 18 1009.4
20260507181154 31 360 3.2 48.3 0.00 0.00 0.00 19 1009.4
20260507180630 31 360 0.0 64.4 0.00 0.00 0.00 19 1009.5
20260507180111 30 360 3.2 80.5 0.00 0.00 0.00 20 1009.6
20260507175556 30 360 1.6 80.5 0.00 0.00 0.00 20 1009.6
20260507175040 30 360 3.2 64.4 0.00 0.00 0.00 20 1009.6
20260507174526 30 360 0.0 80.5 0.00 0.00 0.00 22 1009.6
20260507174007 29 360 6.4 64.4 0.00 0.00 0.00 22 1009.7
20260507173453 29 360 4.8 64.4 0.00 0.00 0.00 23 1009.7
20260507172938 28 360 1.6 48.3 0.00 0.00 0.00 22 1009.8
20260507171822 28 360 1.6 64.4 0.00 0.00 0.00 25 1009.9
20260507171308 28 360 1.6 64.4 0.00 0.00 0.00 23 1009.9
20260507170743 28 360 3.2 64.4 0.00 0.00 0.00 23 1010.0
20260507170229 28 360 3.2 64.4 0.00 0.00 0.00 23 1010.0
20260507165709 28 360 4.8 64.4 0.00 0.00 0.00 23 1010.1
20260507165134 27 360 1.6 48.3 0.00 0.00 0.00 25 1010.1
20260507164609 27 360 0.0 48.3 0.00 0.00 0.00 25 1010.2
20260507164032 27 360 1.6 48.3 0.00 0.00 0.00 25 1010.2
20260507162914 26 360 0.0 64.4 0.00 0.00 0.00 27 1010.2
20260507162354 26 360 1.6 48.3 0.00 0.00 0.00 29 1010.3
20260507161837 26 360 0.0 16.1 0.00 0.00 0.00 30 1010.3
20260507160712 25 360 0.0 48.3 0.00 0.00 0.00 31 1010.4
20260507160151 24 360 3.2 48.3 0.00 0.00 0.00 32 1010.5
20260507155637 24 360 0.0 32.2 0.00 0.00 0.00 33 1010.6
20260507155115 23 360 0.0 16.1 0.00 0.00 0.00 34 1010.6
20260507154555 23 360 0.0 32.2 0.00 0.00 0.00 34 1010.6
20260507154041 23 360 1.6 32.2 0.00 0.00 0.00 34 1010.6
20260507153527 23 360 1.6 32.2 0.00 0.00 0.00 34 1010.6
20260507153008 22 360 0.0 32.2 0.00 0.00 0.00 34 1010.6
20260507152453 22 360 1.6 32.2 0.00 0.00 0.00 35 1010.5
20260507151934 22 360 0.0 48.3 0.00 0.00 0.00 34 1010.6
20260507151412 22 360 0.0 48.3 0.00 0.00 0.00 34 1010.6
20260507150857 22 360 0.0 16.1 0.00 0.00 0.00 36 1010.7
20260507150343 21 360 0.0 16.1 0.00 0.00 0.00 36 1010.6
20260507145825 21 360 0.0 48.3 0.00 0.00 0.00 39 1010.7
20260507145307 21 360 0.0 48.3 0.00 0.00 0.00 39 1010.7
20260507144743 20 360 3.2 32.2 0.00 0.00 0.00 40 1010.7
20260507144228 20 360 3.2 32.2 0.00 0.00 0.00 39 1010.7
20260507143130 20 360 0.0 0.0 0.00 0.00 0.00 39 1010.7
20260507142611 20 360 0.0 0.0 0.00 0.00 0.00 41 1010.7
20260507142038 19 360 0.0 32.2 0.00 0.00 0.00 42 1010.6
20260507141523 19 360 0.0 48.3 0.00 0.00 0.00 43 1010.4
20260507141002 18 360 1.6 48.3 0.00 0.00 0.00 44 1010.4
20260507140446 18 360 0.0 48.3 0.00 0.00 0.00 45 1010.4
20260507135919 17 360 1.6 48.3 0.00 0.00 0.00 48 1010.4
20260507135405 17 360 0.0 0.0 0.00 0.00 0.00 50 1010.4
20260507134850 16 360 0.0 0.0 0.00 0.00 0.00 50 1010.4
20260507134331 16 360 0.0 0.0 0.00 0.00 0.00 49 1010.4
20260507133809 16 360 0.0 0.0 0.00 0.00 0.00 51 1010.3
20260507133254 15 360 0.0 0.0 0.00 0.00 0.00 50 1010.3
20260507132740 15 360 0.0 0.0 0.00 0.00 0.00 50 1010.2
20260507132214 15 360 0.0 0.0 0.00 0.00 0.00 49 1010.2
20260507131654 15 360 0.0 0.0 0.00 0.00 0.00 50 1010.1
20260507131137 15 360 0.0 0.0 0.00 0.00 0.00 50 1010.2
20260507130617 15 360 0.0 0.0 0.00 0.00 0.00 49 1010.1
20260507125541 15 360 0.0 48.3 0.00 0.00 0.00 49 1010.0
20260507125027 15 360 0.0 48.3 0.00 0.00 0.00 49 1010.0
20260507124507 15 360 0.0 32.2 0.00 0.00 0.00 49 1010.0
20260507123952 15 360 0.0 16.1 0.00 0.00 0.00 49 1009.9
20260507123437 15 360 0.0 32.2 0.00 0.00 0.00 49 1009.9
20260507122917 15 360 0.0 48.3 0.00 0.00 0.00 49 1009.9
20260507122403 15 360 3.2 64.4 0.00 0.00 0.00 50 1010.0
20260507121847 15 360 3.2 48.3 0.00 0.00 0.00 50 1010.0
20260507121332 15 360 0.0 0.0 0.00 0.00 0.00 51 1009.9
20260507120818 15 360 0.0 0.0 0.00 0.00 0.00 52 1010.0
20260507120256 15 360 0.0 0.0 0.00 0.00 0.00 54 1010.0
20260507115741 15 360 0.0 0.0 0.00 0.00 0.00 53 1010.0
20260507115225 15 360 0.0 0.0 0.00 0.00 0.00 53 1010.0
20260507114700 15 360 0.0 0.0 0.00 0.00 0.00 51 1010.0
20260507114129 15 360 0.0 0.0 0.00 0.00 0.00 51 1010.0
20260507113609 15 360 0.0 0.0 0.00 0.00 0.00 48 1009.9
20260507113055 15 360 0.0 0.0 0.00 0.00 0.00 47 1009.9
20260507112531 16 360 0.0 0.0 0.00 0.00 0.00 47 1010.0
20260507112016 16 360 0.0 0.0 0.00 0.00 0.00 47 1010.1
20260507111503 16 360 0.0 0.0 0.00 0.00 0.00 47 1010.0
20260507110947 16 360 0.0 0.0 0.00 0.00 0.00 45 1010.0
20260507110430 16 360 0.0 0.0 0.00 0.00 0.00 46 1010.0
20260507105905 16 360 0.0 0.0 0.00 0.00 0.00 46 1010.0
20260507105350 16 360 0.0 0.0 0.00 0.00 0.00 46 1010.0
20260507104831 16 360 0.0 0.0 0.00 0.00 0.00 45 1010.0
20260507104308 16 360 0.0 16.1 0.00 0.00 0.00 44 1010.1
20260507103747 16 360 0.0 16.1 0.00 0.00 0.00 44 1010.1
20260507103229 16 360 0.0 16.1 0.00 0.00 0.00 44 1010.1
20260507102714 16 360 0.0 16.1 0.00 0.00 0.00 45 1010.0
20260507102104 17 360 0.0 0.0 0.00 0.00 0.00 44 1010.1
20260507101548 17 360 0.0 0.0 0.00 0.00 0.00 43 1010.1
20260507101030 17 360 0.0 0.0 0.00 0.00 0.00 43 1010.2
20260507100454 17 360 0.0 0.0 0.00 0.00 0.00 43 1010.2
20260507095933 17 360 0.0 16.1 0.00 0.00 0.00 42 1010.3
20260507095415 17 360 0.0 16.1 0.00 0.00 0.00 43 1010.5
20260507094840 17 360 0.0 0.0 0.00 0.00 0.00 42 1010.4
20260507094322 17 360 0.0 0.0 0.00 0.00 0.00 43 1010.5
20260507093804 17 360 0.0 16.1 0.00 0.00 0.00 42 1010.5
20260507093236 17 360 0.0 16.1 0.00 0.00 0.00 42 1010.5
20260507092722 17 360 0.0 16.1 0.00 0.00 0.00 43 1010.5
20260507092157 17 360 0.0 0.0 0.00 0.00 0.00 45 1010.5
20260507091635 17 360 0.0 0.0 0.00 0.00 0.00 45 1010.6
20260507091113 17 360 0.0 0.0 0.00 0.00 0.00 45 1010.6
20260507090556 17 360 0.0 0.0 0.00 0.00 0.00 45 1010.6
20260507090042 17 360 0.0 0.0 0.00 0.00 0.00 45 1010.7
20260507085514 17 360 0.0 0.0 0.00 0.00 0.00 45 1010.7
20260507084952 17 360 0.0 0.0 0.00 0.00 0.00 44 1010.6
20260507084438 17 360 0.0 0.0 0.00 0.00 0.00 44 1010.7
20260507083919 17 360 0.0 0.0 0.00 0.00 0.00 43 1010.6
20260507083402 17 360 0.0 0.0 0.00 0.00 0.00 44 1010.7
20260507082844 17 360 0.0 0.0 0.00 0.00 0.00 43 1010.7
20260507082318 17 360 0.0 0.0 0.00 0.00 0.00 43 1010.7
20260507081750 17 360 0.0 0.0 0.00 0.00 0.00 43 1010.7
20260507081221 17 360 0.0 0.0 0.00 0.00 0.00 42 1010.7
20260507080656 17 360 0.0 0.0 0.00 0.00 0.00 43 1010.7
20260507080136 17 360 0.0 0.0 0.00 0.00 0.00 43 1010.8
20260507075616 17 360 0.0 0.0 0.00 0.00 0.00 43 1010.8
20260507075059 18 360 0.0 0.0 0.00 0.00 0.00 42 1010.8
20260507074544 18 360 0.0 0.0 0.00 0.00 0.00 42 1010.8
20260507074015 18 360 0.0 0.0 0.00 0.00 0.00 43 1010.8
20260507073458 18 360 0.0 0.0 0.00 0.00 0.00 45 1010.8
20260507072943 18 360 0.0 0.0 0.00 0.00 0.00 46 1010.8
20260507072428 18 360 0.0 0.0 0.00 0.00 0.00 47 1010.8
20260507071913 18 360 0.0 0.0 0.00 0.00 0.00 46 1010.9
20260507071358 18 360 0.0 0.0 0.00 0.00 0.00 46 1011.0
20260507070843 18 360 0.0 0.0 0.00 0.00 0.00 46 1010.9
20260507070326 18 360 0.0 0.0 0.00 0.00 0.00 46 1010.9
20260507065811 18 360 0.0 0.0 0.00 0.00 0.00 46 1010.9
20260507065256 18 360 0.0 0.0 0.00 0.00 0.00 46 1010.9
20260507064738 18 360 0.0 0.0 0.00 0.00 0.00 45 1010.9
20260507064214 19 360 0.0 0.0 0.00 0.00 0.00 45 1010.8
20260507063639 19 360 0.0 0.0 0.00 0.00 0.00 45 1010.8
20260507063125 19 360 0.0 0.0 0.00 0.00 0.00 45 1010.8
20260507062610 19 360 0.0 0.0 0.00 0.00 0.00 46 1010.7
20260507062051 20 360 0.0 0.0 0.00 0.00 0.00 46 1010.8
20260507061536 20 360 0.0 0.0 0.00 0.00 0.00 45 1010.8
20260507060406 20 360 0.0 0.0 0.00 0.00 0.00 39 1010.8
20260507055846 20 360 0.0 0.0 0.00 0.00 0.00 39 1010.7
20260507055332 20 360 0.0 0.0 0.00 0.00 0.00 39 1010.7
20260507054816 20 360 0.0 0.0 0.00 0.00 0.00 39 1010.8
20260507054254 21 360 0.0 0.0 0.00 0.00 0.00 37 1010.8
20260507053735 21 360 0.0 0.0 0.00 0.00 0.00 37 1010.8
20260507052516 21 360 0.0 0.0 0.00 0.00 0.00 36 1010.8
20260507051957 21 360 0.0 16.1 0.00 0.00 0.00 36 1010.8
20260507051435 21 360 0.0 16.1 0.00 0.00 0.00 37 1010.8
20260507050856 21 360 0.0 0.0 0.00 0.00 0.00 36 1010.8
20260507050326 21 360 0.0 0.0 0.00 0.00 0.00 35 1010.7
20260507045744 21 360 0.0 16.1 0.00 0.00 0.00 35 1010.7
20260507045222 21 360 0.0 16.1 0.00 0.00 0.00 36 1010.6
20260507044707 21 360 0.0 0.0 0.00 0.00 0.00 35 1010.6
20260507044148 21 360 0.0 0.0 0.00 0.00 0.00 35 1010.6
20260507043633 21 360 0.0 0.0 0.00 0.00 0.00 34 1010.5
20260507043112 22 360 0.0 0.0 0.00 0.00 0.00 33 1010.5
20260507042554 22 360 0.0 0.0 0.00 0.00 0.00 34 1010.4
20260507042032 22 360 0.0 0.0 0.00 0.00 0.00 33 1010.4
20260507041517 22 360 0.0 0.0 0.00 0.00 0.00 32 1010.3
20260507040959 22 360 0.0 0.0 0.00 0.00 0.00 31 1010.3
20260507040445 22 360 0.0 0.0 0.00 0.00 0.00 31 1010.2
20260507035929 22 360 0.0 0.0 0.00 0.00 0.00 31 1010.2
20260507035415 23 360 0.0 0.0 0.00 0.00 0.00 31 1010.1
20260507034900 23 360 0.0 0.0 0.00 0.00 0.00 30 1010.1
20260507034345 23 360 0.0 0.0 0.00 0.00 0.00 31 1010.0
20260507033830 23 360 0.0 0.0 0.00 0.00 0.00 31 1010.0
20260507033316 23 360 0.0 0.0 0.00 0.00 0.00 31 1010.0
20260507032801 23 360 0.0 0.0 0.00 0.00 0.00 31 1009.9
20260507032241 23 360 0.0 0.0 0.00 0.00 0.00 31 1009.9
20260507031726 23 360 0.0 0.0 0.00 0.00 0.00 30 1009.8
20260507031206 24 360 0.0 0.0 0.00 0.00 0.00 29 1009.7
20260507030652 24 360 0.0 0.0 0.00 0.00 0.00 29 1009.6
20260507030135 24 360 0.0 0.0 0.00 0.00 0.00 28 1009.6
20260507025621 25 360 0.0 0.0 0.00 0.00 0.00 27 1009.6
20260507025106 25 360 0.0 0.0 0.00 0.00 0.00 27 1009.5
20260507024543 25 360 0.0 0.0 0.00 0.00 0.00 27 1009.5
20260507024021 25 360 0.0 0.0 0.00 0.00 0.00 26 1009.3
20260507023506 25 360 0.0 0.0 0.00 0.00 0.00 25 1009.4
20260507022944 26 360 0.0 0.0 0.00 0.00 0.00 25 1009.3
20260507022429 26 360 0.0 16.1 0.00 0.00 0.00 24 1009.2
20260507021915 26 360 0.0 16.1 0.00 0.00 0.00 25 1009.1
20260507021235 26 360 0.0 16.1 0.00 0.00 0.00 24 1009.1
20260507020720 26 360 0.0 32.2 0.00 0.00 0.00 23 1009.0
20260507020202 27 360 1.6 48.3 0.00 0.00 0.00 23 1009.0
20260507015648 27 360 3.2 48.3 0.00 0.00 0.00 22 1009.0
20260507015115 27 360 3.2 32.2 0.00 0.00 0.00 22 1009.0
20260507014601 27 360 1.6 64.4 0.00 0.00 0.00 22 1009.0
20260507014046 27 360 1.6 80.5 0.00 0.00 0.00 22 1009.0
20260507013529 27 360 3.2 96.6 0.00 0.00 0.00 22 1009.0
20260507013013 27 360 4.8 96.6 0.00 0.00 0.00 22 1009.0
20260507012458 27 360 3.2 96.6 0.00 0.00 0.00 22 1009.0
20260507011943 27 360 3.2 96.6 0.00 0.00 0.00 22 1009.1
20260507011422 27 360 0.0 96.6 0.00 0.00 0.00 22 1009.1
20260507010904 28 360 4.8 64.4 0.00 0.00 0.00 21 1009.0
20260507010342 28 360 3.2 64.4 0.00 0.00 0.00 22 1009.0
20260507005827 28 360 1.6 64.4 0.00 0.00 0.00 22 1009.0
20260507005308 28 360 4.8 80.5 0.00 0.00 0.00 22 1009.0
20260507004750 28 360 1.6 80.5 0.00 0.00 0.00 22 1009.0
20260507004236 28 360 1.6 80.5 0.00 0.00 0.00 22 1009.0
20260507003714 28 360 3.2 80.5 0.00 0.00 0.00 21 1009.0
20260507003159 28 360 1.6 64.4 0.00 0.00 0.00 22 1009.0
20260507002640 28 360 0.0 80.5 0.00 0.00 0.00 21 1009.0
20260507002118 28 360 6.4 80.5 0.00 0.00 0.00 22 1008.9
20260507001551 28 360 1.6 64.4 0.00 0.00 0.00 22 1008.9
20260507001035 28 360 1.6 80.5 0.00 0.00 0.00 21 1008.8
20260507000520 28 360 3.2 80.5 0.00 0.00 0.00 22 1008.9
20260507000003 28 360 4.8 80.5 0.00 0.00 0.00 21 1009.0
20260506235445 28 360 1.6 128.7 0.00 0.00 0.00 22 1009.0
20260506234930 28 360 3.2 128.7 0.00 0.00 0.00 22 1009.0
20260506234414 28 360 4.8 128.7 0.00 0.00 0.00 22 1009.0
20260506233900 28 360 4.8 160.9 0.00 0.00 0.00 22 1009.1
20260506233342 28 360 4.8 96.6 0.00 0.00 0.00 22 1009.0
20260506232817 28 360 4.8 96.6 0.00 0.00 0.00 22 1009.1
20260506232246 28 360 4.8 96.6 0.00 0.00 0.00 22 1009.2
20260506231726 28 360 3.2 128.7 0.00 0.00 0.00 23 1009.2
20260506231208 28 360 6.4 144.8 0.00 0.00 0.00 21 1009.3
20260506230648 28 360 0.0 80.5 0.00 0.00 0.00 21 1009.4
20260506230133 28 360 0.0 144.8 0.00 0.00 0.00 22 1009.5
20260506225614 29 360 8.0 144.8 0.00 0.00 0.00 22 1009.6
20260506225052 29 360 3.2 144.8 0.00 0.00 0.00 22 1009.6
20260506224538 28 360 3.2 96.6 0.00 0.00 0.00 23 1009.6
20260506224023 29 360 8.0 96.6 0.00 0.00 0.00 23 1009.8
20260506223505 28 360 1.6 64.4 0.00 0.00 0.00 23 1009.8
20260506222950 28 360 3.2 144.8 0.00 0.00 0.00 23 1009.8
20260506222418 28 360 1.6 144.8 0.00 0.00 0.00 22 1010.0
20260506221838 29 360 1.6 128.7 0.00 0.00 0.00 22 1010.0
20260506221323 29 360 1.6 128.7 0.00 0.00 0.00 22 1010.0
20260506220806 28 360 1.6 64.4 0.00 0.00 0.00 23 1010.1
20260506220246 28 360 3.2 80.5 0.00 0.00 0.00 23 1010.2
20260506215724 28 360 1.6 144.8 0.00 0.00 0.00 23 1010.3
20260506215210 28 360 4.8 144.8 0.00 0.00 0.00 23 1010.3
20260506214650 28 360 4.8 144.8 0.00 0.00 0.00 23 1010.4
20260506214124 28 360 1.6 144.8 0.00 0.00 0.00 23 1010.5
20260506213608 28 360 3.2 177.0 0.00 0.00 0.00 24 1010.6
20260506213051 28 360 4.8 64.4 0.00 0.00 0.00 23 1010.7
20260506212528 28 360 1.6 64.4 0.00 0.00 0.00 24 1010.8
20260506211412 27 360 3.2 96.6 0.00 0.00 0.00 25 1010.9
20260506210858 28 360 3.2 80.5 0.00 0.00 0.00 24 1010.9
20260506210340 27 360 1.6 96.6 0.00 0.00 0.00 24 1011.1
20260506205826 27 360 9.7 144.8 0.00 0.00 0.00 25 1011.1
20260506205246 27 360 4.8 144.8 0.00 0.00 0.00 25 1011.2
20260506204731 27 360 3.2 128.7 0.00 0.00 0.00 25 1011.2
20260506204215 27 360 4.8 128.7 0.00 0.00 0.00 25 1011.3